Weather History for Moffett NAS, CA

Change the Weather History Date:

Saturday, March 31, 2012

  Actual Average Record
Temperature  
Mean Temperature 55 °F 57 °F  
Max Temperature 61 °F 67 °F 83 °F (2011)
Min Temperature 48 °F 48 °F 37 °F (2008)
Degree Days  
Heating Degree Days 10    
Month to date heating degree days 323  
Since 1 July heating degree days 1727  
Cooling Degree Days 0    
Month to date cooling degree days 0  
Year to date cooling degree days 0  
Growing Degree Days 4 (Base 50)    
Moisture  
Dew Point 47 °F    
Average Humidity 73    
Maximum Humidity 100    
Minimum Humidity 46    
Precipitation  
Precipitation 0.25 in 0.05 in 1.32 in (1982)
Month to date precipitation 1.97 2.26  
Year to date precipitation 3.75 8.08  
Since 1 July precipitation 5.52 13.13  
Sea Level Pressure  
Sea Level Pressure 29.90 in    
Wind  
Wind Speed 10 mph (South)    
Max Wind Speed 23 mph    
Max Gust Speed 35 mph    
Visibility 9 miles    
Events Rain    
T = Trace of Precipitation, MM = Missing Value Source: NWS Daily Summary

Daily Weather History Graph

Daily Weather History Graph

Search for Another Location

Airport:

Trip Planner

Search our weather history database for the weather conditions in past years. The results will help you decide how hot, cold, wet, or windy it might be!

Date:

Astronomy

Mar. 31, 2012 Rise Set
Actual Time 6:54 AM PDT 7:30 PM PDT
Civil Twilight 6:28 AM PDT 7:56 PM PDT
Nautical Twilight 5:57 AM PDT 8:27 PM PDT
Astronomical Twilight 5:25 AM PDT 8:59 PM PDT
Moon 1:11 PM PDT (3/31) 2:46 AM PDT (3/31)
Length of Visible Light 13h 28m
Length of Day
12h 36m
First Quarter, 60% of the Moon is Illuminated
Mar 31
First Quarter
Apr 6
Full
Apr 13
Last Quarter
Apr 21
New
Apr 29
First Quarter

Hourly Weather History & Observations

Time (PDT) Temp. Dew Point Humidity Pressure Visibility Wind Dir Wind Speed Gust Speed Precip Events Conditions
12:56 AM 60.1 °F 50.0 °F 69% 29.94 in 10.0 mi ESE 9.2 mph - N/A   Overcast
1:56 AM 59.0 °F 50.0 °F 72% 29.91 in 10.0 mi ESE 11.5 mph - N/A   Overcast
2:56 AM 59.0 °F 50.0 °F 72% 29.89 in 10.0 mi SSE 6.9 mph - N/A   Scattered Clouds
3:56 AM 60.1 °F 48.9 °F 67% 29.86 in 10.0 mi South 11.5 mph - N/A   Mostly Cloudy
4:56 AM 59.0 °F 50.0 °F 72% 29.85 in 10.0 mi SSE 9.2 mph - 0.00 in Rain Light Rain
5:56 AM 57.9 °F 50.0 °F 75% 29.83 in 10.0 mi SE 10.4 mph 17.3 mph 0.00 in Rain Light Rain
7:30 AM 59.0 °F 48.2 °F 67% 29.77 in 10.0 mi SE 18.4 mph 34.5 mph N/A   Overcast
7:51 AM 59.0 °F 48.2 °F 67% 29.75 in 10.0 mi SE 23.0 mph 33.4 mph N/A   Mostly Cloudy
7:56 AM 57.9 °F 48.0 °F 70% 29.76 in 10.0 mi SE 20.7 mph 31.1 mph N/A   Mostly Cloudy
8:56 AM 57.0 °F 51.1 °F 81% 29.80 in 4.0 mi SSE 10.4 mph 18.4 mph 0.01 in Rain Light Rain
9:09 AM 55.4 °F 51.8 °F 88% 29.80 in 2.5 mi South 9.2 mph 17.3 mph 0.03 in Rain Rain
9:17 AM 55.4 °F 51.8 °F 88% 29.83 in 3.0 mi WSW 15.0 mph 24.2 mph 0.06 in Rain Rain
9:56 AM 52.0 °F 50.0 °F 93% 29.88 in 10.0 mi West 9.2 mph 20.7 mph 0.08 in Rain Light Rain
10:56 AM 50.0 °F 48.9 °F 96% 29.91 in 10.0 mi Variable 3.5 mph - 0.01 in Rain Light Rain
11:56 AM 50.0 °F 48.0 °F 93% 29.90 in 5.0 mi ESE 10.4 mph - 0.02 in Rain Light Rain
12:56 PM 53.1 °F 50.0 °F 89% 29.91 in 10.0 mi SE 11.5 mph - 0.01 in   Overcast
1:56 PM 55.0 °F 46.0 °F 72% 29.91 in 10.0 mi SSE 8.1 mph 16.1 mph N/A   Overcast
2:56 PM 60.1 °F 41.0 °F 49% 29.89 in 10.0 mi SW 13.8 mph 21.9 mph 0.00 in   Mostly Cloudy
3:56 PM 60.1 °F 39.0 °F 46% 29.89 in 10.0 mi SW 17.3 mph 24.2 mph N/A   Scattered Clouds
4:56 PM 59.0 °F 41.0 °F 51% 29.91 in 10.0 mi SSW 13.8 mph 19.6 mph 0.00 in   Clear
5:56 PM 57.9 °F 37.9 °F 47% 29.92 in 10.0 mi SW 13.8 mph 24.2 mph N/A   Clear
6:56 PM 55.9 °F 37.9 °F 51% 29.93 in 10.0 mi SSW 5.8 mph 17.3 mph N/A   Partly Cloudy
7:56 PM 50.0 °F 44.1 °F 80% 29.97 in 6.0 mi South 8.1 mph 21.9 mph 0.04 in Rain Light Rain
8:56 PM 50.0 °F 48.9 °F 96% 29.99 in 10.0 mi SW 5.8 mph - 0.01 in Rain Light Rain
9:56 PM 48.9 °F 48.0 °F 97% 30.03 in 10.0 mi WSW 5.8 mph - 0.03 in   Partly Cloudy
10:56 PM 48.9 °F 48.0 °F 97% 30.06 in 10.0 mi WSW 4.6 mph - N/A   Scattered Clouds
11:56 PM 48.9 °F 48.0 °F 97% 30.08 in 10.0 mi WSW 3.5 mph - 0.01 in   Mostly Cloudy